When you browse on this site, cookies collect data to enhance your experience and personalize the content and advertising you see.
Visit our Privacy Policy to learn more. By continuing to use the site, you agree to this use of cookies and data.
  • In Hungary
  • List of Countries
  • For 7 days
  • Water Temperature
  • Weather Map
  • News
  • Weather Widgets
  • user-avatar
    Login

    Hourly Weather Borkin

    Today, 21 February, Friday

    Time Temperature Precipitation Wind Pressure Humidity
    00:00 -1°C° 0.1 mm 6 mps 762 mmHg 99%
    01:00 -1°C° 0.1 mm 6 mps 762 mmHg 99%
    02:00 -1°C° 0.1 mm 6 mps 762 mmHg 99%
    03:00 -1°C° 0.1 mm 6 mps 762 mmHg 99%
    04:00 -1°C° 0.2 mm 6 mps 762 mmHg 99%
    05:00 -1°C° 0.2 mm 6 mps 762 mmHg 98%
    06:00 -1°C° 0.2 mm 6 mps 762 mmHg 98%
    07:00 -1°C° 0.3 mm 6 mps 762 mmHg 98%
    08:00 -1°C° 0.3 mm 6 mps 762 mmHg 98%
    09:00 -1°C° 0.3 mm 6 mps 762 mmHg 98%
    16:00 0°C° 0.1 mm 5 mps 762 mmHg 99%
    17:00 0°C° 0.1 mm 5 mps 762 mmHg 99%
    18:00 0°C° 0.1 mm 5 mps 762 mmHg 99%
    19:00 0°C° 0 mm 5 mps 762 mmHg 98%
    20:00 0°C° 0 mm 5 mps 762 mmHg 98%
    21:00 0°C° 0 mm 5 mps 763 mmHg 98%
    22:00 0°C° 0 mm 5 mps 763 mmHg 98%
    23:00 0°C° 0 mm 5 mps 763 mmHg 98%

    Tomorrow, 22 February, Saturday

    Time Temperature Precipitation Wind Pressure Humidity
    00:00 0°C° 0 mm 5 mps 763 mmHg 98%
    01:00 0°C° 0 mm 5 mps 763 mmHg 98%
    02:00 -1°C° 0 mm 5 mps 763 mmHg 98%
    03:00 -2°C° 0 mm 6 mps 763 mmHg 98%
    04:00 -1°C° 0.1 mm 5 mps 763 mmHg 98%
    05:00 -1°C° 0.1 mm 5 mps 763 mmHg 97%
    06:00 -1°C° 0.1 mm 5 mps 763 mmHg 97%
    07:00 -1°C° 0 mm 5 mps 764 mmHg 97%
    08:00 -1°C° 0 mm 5 mps 764 mmHg 98%
    09:00 -1°C° 0 mm 5 mps 764 mmHg 98%
    10:00 0°C° 0.2 mm 5 mps 765 mmHg 98%
    11:00 0°C° 0.2 mm 5 mps 765 mmHg 98%
    12:00 0°C° 0.2 mm 5 mps 765 mmHg 98%
    13:00 0°C° 0.3 mm 5 mps 765 mmHg 98%
    14:00 0°C° 0.3 mm 5 mps 765 mmHg 98%
    15:00 0°C° 0.3 mm 5 mps 765 mmHg 98%
    16:00 0°C° 0.4 mm 5 mps 765 mmHg 98%
    17:00 0°C° 0.4 mm 4 mps 765 mmHg 98%
    18:00 0°C° 0.4 mm 4 mps 765 mmHg 98%
    19:00 0°C° 0.3 mm 4 mps 765 mmHg 98%
    20:00 0°C° 0.3 mm 4 mps 765 mmHg 98%
    21:00 0°C° 0.3 mm 4 mps 765 mmHg 98%
    22:00 +1°C° 0.1 mm 3 mps 765 mmHg 98%
    23:00 +1°C° 0.1 mm 3 mps 765 mmHg 98%

    Day after tomorrow, 23 February, Sunday

    Time Temperature Precipitation Wind Pressure Humidity
    00:00 +1°C° 0.1 mm 3 mps 765 mmHg 99%
    01:00 +2°C° 0 mm 2 mps 765 mmHg 99%
    02:00 +2°C° 0 mm 2 mps 764 mmHg 98%
    03:00 +3°C° 0 mm 1 mps 764 mmHg 98%
    04:00 +3°C° 0 mm 1 mps 764 mmHg 98%
    05:00 +3°C° 0 mm 1 mps 764 mmHg 98%
    06:00 +2°C° 0 mm 1 mps 763 mmHg 98%
    07:00 +2°C° 0 mm 2 mps 763 mmHg 97%
    08:00 +2°C° 0 mm 2 mps 763 mmHg 96%
    09:00 +1°C° 0 mm 3 mps 763 mmHg 96%
    10:00 0°C° 0 mm 4 mps 762 mmHg 93%
    11:00 +1°C° 0 mm 4 mps 762 mmHg 89%
    12:00 +1°C° 0 mm 5 mps 761 mmHg 86%
    13:00 +1°C° 0 mm 6 mps 761 mmHg 86%
    14:00 0°C° 0 mm 7 mps 760 mmHg 86%
    15:00 0°C° 0 mm 8 mps 759 mmHg 86%
    16:00 0°C° 0.1 mm 8 mps 758 mmHg 87%
    17:00 0°C° 0.1 mm 9 mps 758 mmHg 87%
    18:00 0°C° 0.1 mm 9 mps 757 mmHg 88%
    19:00 0°C° 0.8 mm 9 mps 757 mmHg 91%
    20:00 0°C° 0.8 mm 10 mps 756 mmHg 94%
    21:00 -1°C° 0.8 mm 11 mps 756 mmHg 97%
    22:00 0°C° 0.4 mm 10 mps 755 mmHg 95%
    23:00 0°C° 0.4 mm 9 mps 755 mmHg 94%

    24 February, Monday

    Time Temperature Precipitation Wind Pressure Humidity
    00:00 +1°C° 0.4 mm 9 mps 755 mmHg 92%
    01:00 0°C° 0.1 mm 8 mps 755 mmHg 91%
    02:00 0°C° 0.1 mm 7 mps 755 mmHg 89%
    03:00 0°C° 0.1 mm 7 mps 755 mmHg 88%
    04:00 +1°C° 0 mm 6 mps 754 mmHg 89%
    05:00 0°C° 0 mm 5 mps 754 mmHg 89%
    06:00 0°C° 0 mm 5 mps 754 mmHg 90%
    07:00 0°C° 0 mm 4 mps 754 mmHg 91%
    08:00 0°C° 0 mm 4 mps 753 mmHg 91%
    09:00 +1°C° 0 mm 4 mps 753 mmHg 92%
    10:00 +1°C° 0.4 mm 4 mps 752 mmHg 93%
    11:00 +1°C° 0.4 mm 4 mps 751 mmHg 94%
    12:00 +1°C° 0.4 mm 4 mps 750 mmHg 96%
    13:00 +1°C° 2.2 mm 5 mps 749 mmHg 96%
    14:00 +2°C° 2.2 mm 6 mps 748 mmHg 97%
    15:00 +2°C° 2.2 mm 7 mps 747 mmHg 97%
    16:00 +1°C° 2 mm 8 mps 746 mmHg 97%
    17:00 +1°C° 2 mm 8 mps 746 mmHg 96%
    18:00 +1°C° 2 mm 8 mps 745 mmHg 96%
    19:00 +1°C° 1.4 mm 8 mps 745 mmHg 95%
    20:00 +1°C° 1.4 mm 8 mps 745 mmHg 95%
    21:00 +2°C° 1.4 mm 8 mps 745 mmHg 94%
    22:00 +2°C° 1.8 mm 8 mps 745 mmHg 95%
    23:00 +3°C° 1.8 mm 7 mps 745 mmHg 95%

    25 February, Tuesday

    Time Temperature Precipitation Wind Pressure Humidity
    00:00 +3°C° 1.8 mm 7 mps 746 mmHg 95%
    01:00 +3°C° 0.5 mm 6 mps 746 mmHg 95%
    02:00 +3°C° 0.5 mm 4 mps 747 mmHg 96%
    03:00 +3°C° 0.5 mm 3 mps 747 mmHg 96%
    04:00 +3°C° 0 mm 3 mps 748 mmHg 96%
    05:00 +3°C° 0 mm 3 mps 749 mmHg 96%
    06:00 +3°C° 0 mm 3 mps 750 mmHg 95%
    07:00 +1°C° 0.2 mm 4 mps 750 mmHg 95%
    08:00 +1°C° 0.2 mm 5 mps 751 mmHg 94%
    09:00 +1°C° 0.2 mm 6 mps 752 mmHg 93%
    10:00 +1°C° 0.4 mm 6 mps 753 mmHg 92%
    11:00 +2°C° 0.4 mm 6 mps 754 mmHg 90%
    12:00 +2°C° 0.4 mm 7 mps 755 mmHg 88%
    13:00 +2°C° 0.3 mm 7 mps 755 mmHg 88%
    14:00 +2°C° 0.3 mm 7 mps 756 mmHg 87%
    15:00 +2°C° 0.3 mm 7 mps 757 mmHg 86%
    16:00 0°C° 0 mm 7 mps 758 mmHg 84%
    17:00 +1°C° 0 mm 6 mps 758 mmHg 83%
    18:00 +1°C° 0 mm 6 mps 759 mmHg 81%
    19:00 0°C° 0 mm 5 mps 760 mmHg 83%
    20:00 0°C° 0 mm 5 mps 760 mmHg 84%
    21:00 0°C° 0 mm 4 mps 761 mmHg 86%
    22:00 -1°C° 0 mm 4 mps 762 mmHg 87%
    23:00 0°C° 0 mm 3 mps 762 mmHg 88%

    26 February, Wednesday

    Time Temperature Precipitation Wind Pressure Humidity
    00:00 -1°C° 0 mm 3 mps 762 mmHg 89%
    01:00 -1°C° 0 mm 3 mps 762 mmHg 88%
    02:00 -1°C° 0 mm 2 mps 763 mmHg 87%
    03:00 -1°C° 0 mm 2 mps 763 mmHg 86%
    04:00 -1°C° 0 mm 2 mps 763 mmHg 85%
    05:00 -1°C° 0 mm 2 mps 763 mmHg 84%
    06:00 +1°C° 0 mm 1 mps 763 mmHg 83%
    07:00 +2°C° 0 mm 1 mps 763 mmHg 81%
    08:00 +1°C° 0 mm 2 mps 764 mmHg 78%
    09:00 +2°C° 0 mm 2 mps 764 mmHg 76%
    10:00 +1°C° 0 mm 3 mps 764 mmHg 74%
    11:00 +2°C° 0 mm 3 mps 764 mmHg 71%
    12:00 +3°C° 0 mm 4 mps 764 mmHg 69%
    13:00 +3°C° 0 mm 4 mps 763 mmHg 69%
    14:00 +4°C° 0 mm 4 mps 763 mmHg 69%
    15:00 +4°C° 0 mm 4 mps 762 mmHg 68%
    16:00 +3°C° 0 mm 4 mps 762 mmHg 71%
    17:00 +3°C° 0 mm 3 mps 762 mmHg 74%
    18:00 +2°C° 0 mm 3 mps 761 mmHg 77%
    19:00 +2°C° 0 mm 3 mps 761 mmHg 78%
    20:00 +2°C° 0 mm 3 mps 761 mmHg 78%
    21:00 +3°C° 0 mm 2 mps 761 mmHg 79%
    22:00 +2°C° 0 mm 3 mps 760 mmHg 80%
    23:00 +1°C° 0 mm 3 mps 760 mmHg 81%
    Show more